DateTimeUTC,F1_A11,F1_S11,BsB_S11,BsG_S11,BsR_S11,BbsB_S11,BbsG_S11,BbsR_S11,BaB_A11,BaG_A11,BaR_A11,Tu_S11,T_S11,Uu_S11,U_S11,P_S11,T1_A11
2021-06-25T11:00:00Z,00000200,20000000,,,,,,,-000.20,0000.44,-000.42,18.3,24.9,09.7,06.5,0661.3,31.1
2021-06-25T11:01:00Z,00000200,20000000,,,,,,,0000.44,-000.41,0000.20,18.3,24.9,09.7,06.5,0661.3,31.1
2021-06-25T11:02:00Z,00000200,20000000,,,,,,,-000.61,0000.21,-000.31,18.3,24.9,09.7,06.5,0661.3,31.1
2021-06-25T11:03:00Z,00000200,60000000,,,,,,,0000.19,-000.12,0000.24,18.3,24.9,09.7,06.5,0661.3,31.1
2021-06-25T11:04:00Z,00000200,40000000,0000.12,0000.16,0000.25,0000.45,0000.19,-000.02,0000.10,0000.25,0000.42,18.3,24.7,09.7,06.6,0662.2,31.1
2021-06-25T11:05:00Z,00000200,00000000,-000.11,0000.29,-000.08,0000.50,-000.07,-000.22,-000.10,0000.02,-000.39,18.4,24.7,09.8,06.7,0662.2,31.1
2021-06-25T11:06:00Z,00000200,00000000,0000.35,0000.29,0000.27,0000.30,0000.11,0000.04,0000.19,-000.14,-000.02,18.4,24.7,09.7,06.6,0662.2,31.1
2021-06-25T11:07:00Z,00000200,00000000,0000.37,-000.08,0000.25,0000.12,0000.11,-000.30,0000.16,0000.41,0000.52,18.4,24.7,09.6,06.5,0662.2,31.1
2021-06-25T11:08:00Z,00000200,00000000,0000.48,0000.34,-000.16,0000.07,-000.19,-000.17,-000.04,-000.25,-000.26,18.4,24.6,09.6,06.5,0662.2,31.1
2021-06-25T11:09:00Z,00000200,00000000,0000.45,0000.27,0000.03,-000.00,0000.10,-000.25,0000.05,0000.13,-000.23,18.3,24.6,09.7,06.6,0662.2,31.1
2021-06-25T11:10:00Z,00000200,00000000,0000.90,0000.08,-000.06,0000.58,0000.15,0000.29,0000.08,0000.19,0000.34,18.3,24.6,09.5,06.4,0662.2,31.1
2021-06-25T11:11:00Z,00000200,00000000,0001.03,0000.15,-000.01,0000.85,-000.02,-000.09,0000.12,0000.15,-000.01,18.3,24.6,09.6,06.5,0662.2,31.1
2021-06-25T11:12:00Z,00000200,00000000,0000.51,0000.30,-000.00,0000.06,0000.19,-000.20,-000.17,-000.08,0000.08,18.3,24.6,09.7,06.6,0662.2,31.1
2021-06-25T11:13:00Z,00000200,00000000,0000.37,-000.11,0000.24,0000.19,0000.18,0000.12,-000.23,-000.08,-000.07,18.3,24.6,09.6,06.5,0662.3,31.1
2021-06-25T11:14:00Z,00000200,00000000,0000.70,0000.01,0000.10,0000.62,0000.08,-000.13,0000.23,-000.09,0000.15,18.3,24.6,09.6,06.6,0662.3,31.1
2021-06-25T11:15:00Z,00000200,00000000,0000.09,0000.41,-000.12,-000.10,0000.28,-000.24,0000.28,0000.40,-000.26,18.3,24.6,09.6,06.6,0662.3,31.1
2021-06-25T11:16:00Z,00000200,00000000,0000.01,0000.12,0000.11,0000.13,0000.07,0000.06,-000.00,0000.06,0000.26,18.3,24.6,09.7,06.6,0662.3,31.1
2021-06-25T11:17:00Z,00000200,00000000,0000.14,0000.25,-000.15,0000.88,0000.35,-000.34,0000.04,0000.07,-000.03,18.3,24.6,09.7,06.6,0662.4,31.1
2021-06-25T11:18:00Z,00000200,00000000,0000.08,0000.28,0000.25,0000.05,0000.39,0000.15,0000.00,-000.04,0000.34,18.3,24.5,09.6,06.6,0662.3,31.1
2021-06-25T11:19:00Z,00000200,00000000,0000.45,0000.12,0000.04,-000.32,0000.31,0000.05,0000.25,0000.52,0000.00,18.4,24.6,09.6,06.5,0662.3,31.1
2021-06-25T11:20:00Z,00000200,00000000,0000.07,-000.04,0000.15,0000.01,0000.14,0000.13,0000.33,-000.44,-000.46,18.4,24.6,09.5,06.5,0662.3,31.1
2021-06-25T11:21:00Z,00000200,00000000,-000.02,0000.22,-000.01,-000.01,0000.08,-000.18,-000.24,0000.03,0000.67,18.4,24.6,09.4,06.4,0662.3,31.1
2021-06-25T11:22:00Z,00000200,00000000,0000.41,0000.18,0000.11,0000.25,0000.12,0000.07,0000.29,0000.18,0000.10,18.5,24.6,09.3,06.4,0662.3,31.1
2021-06-25T11:23:00Z,00000200,00000000,0000.44,0000.36,-000.04,0000.93,0000.17,-000.26,-000.20,-000.04,-000.03,18.5,24.6,09.3,06.4,0662.3,31.1
2021-06-25T11:24:00Z,00000200,00000000,0000.63,0000.19,-000.19,0000.10,0000.17,-000.14,0000.19,0000.06,-000.32,18.5,24.6,09.5,06.5,0662.4,31.1
2021-06-25T11:25:00Z,00000200,00000000,0000.57,0000.34,0000.39,0000.10,0000.24,0000.12,0000.11,0000.04,0000.33,18.5,24.6,09.3,06.4,0662.3,31.1
2021-06-25T11:26:00Z,00000200,00000000,0000.96,0000.27,0000.27,0000.42,0000.34,-000.07,-000.17,0000.10,0000.14,18.5,24.6,09.5,06.5,0662.4,31.1
2021-06-25T11:27:00Z,00000200,00000000,-000.04,0000.60,0000.03,0000.30,0000.17,-000.16,0000.15,-000.15,-000.34,18.5,24.6,09.6,06.6,0662.4,31.1
2021-06-25T11:28:00Z,00000200,00000000,0000.75,0000.36,0000.14,0000.28,0000.28,-000.03,0000.12,0000.39,0000.48,18.4,24.6,09.6,06.6,0662.5,31.1
2021-06-25T11:29:00Z,00000200,00000000,0000.86,0000.11,0000.12,-000.06,0000.01,-000.09,0000.09,-000.24,-000.34,18.4,24.6,09.6,06.6,0662.5,31.1
2021-06-25T11:30:00Z,00000200,00000000,0000.39,-000.05,-000.14,-000.05,-000.05,0000.17,-000.28,0000.10,-000.05,18.4,24.6,09.6,06.6,0662.5,31.1
2021-06-25T11:31:00Z,00000200,00000000,0000.01,0000.17,-000.23,0000.38,0000.04,-000.11,0000.46,0000.10,0000.20,18.4,24.6,09.6,06.6,0662.4,31.1
2021-06-25T11:32:00Z,00000200,00000000,0000.17,0000.18,0000.36,0000.11,-000.07,0000.15,-000.40,-000.11,0000.16,18.4,24.6,09.5,06.5,0662.4,31.1
2021-06-25T11:33:00Z,00000200,00000000,0000.17,0000.04,0000.02,0000.06,0000.05,0000.25,0000.24,0000.22,-000.08,18.4,24.6,09.4,06.5,0662.4,31.1
2021-06-25T11:34:00Z,00000200,00000000,0000.93,0000.13,0000.19,0000.02,0000.17,0000.21,0000.13,0000.29,0000.16,18.5,24.6,09.4,06.5,0662.4,31.1
2021-06-25T11:35:00Z,00000200,00000000,0000.46,-000.15,0000.14,-000.03,0000.39,-000.13,0000.05,-000.28,-000.02,18.5,24.6,09.3,06.4,0662.4,31.1
2021-06-25T11:36:00Z,00000200,00000000,0000.79,-000.21,0000.14,0000.26,-000.06,0000.10,0000.13,0000.71,0000.12,18.5,24.7,09.4,06.5,0662.5,31.1
2021-06-25T11:37:00Z,00000200,00000000,0000.27,0000.10,0000.03,0000.32,0000.18,0000.07,0000.01,-000.62,-000.02,18.5,24.7,09.4,06.5,0662.4,31.1
2021-06-25T11:38:00Z,00000200,00000000,0000.15,0000.45,0000.09,0000.56,0000.14,0000.11,0000.15,0000.17,0000.02,18.5,24.7,09.3,06.4,0662.4,31.1
2021-06-25T11:39:00Z,00000200,00000000,0000.83,0000.10,0000.15,0000.20,0000.15,0000.06,0000.19,0000.26,0000.33,18.5,24.7,09.3,06.4,0662.5,31.1
2021-06-25T11:40:00Z,00000200,00000000,0000.95,0000.09,0000.19,0000.07,0000.06,0000.07,0000.06,0000.07,-000.21,18.5,24.7,09.3,06.4,0662.4,31.1
2021-06-25T11:41:00Z,00000200,00000000,0000.39,0000.07,-000.05,0000.29,0000.15,-000.12,-000.22,-000.14,-000.16,18.5,24.7,09.4,06.5,0662.5,31.1
2021-06-25T11:42:00Z,00000200,00000000,-000.32,0000.41,0000.28,0000.21,0000.30,-000.04,-000.16,-000.11,-000.04,18.5,24.6,09.3,06.4,0662.4,31.1
2021-06-25T11:43:00Z,00000200,00000000,0000.55,0000.03,0000.02,-000.25,-000.10,0000.15,0000.46,0000.49,0000.27,18.5,24.6,09.2,06.3,0662.5,31.1
2021-06-25T11:44:00Z,00000200,00000000,0000.05,0000.31,0000.03,0000.10,0000.22,-000.18,-000.22,-000.21,-000.08,18.5,24.6,09.4,06.5,0662.5,31.1
2021-06-25T11:45:00Z,00000200,00000000,0000.46,0000.37,0000.12,0000.02,0000.20,0000.13,0000.28,0000.07,0000.15,18.5,24.6,09.4,06.5,0662.5,31.1
2021-06-25T11:46:00Z,00000200,00000000,0000.32,0000.26,0000.15,0000.51,0000.17,-000.27,0000.32,0000.11,0000.07,18.5,24.6,09.5,06.5,0662.5,31.1
2021-06-25T11:47:00Z,00000200,00000000,-000.75,0000.28,-000.01,-000.32,0000.14,-000.04,0000.03,0000.38,0000.01,18.4,24.6,09.5,06.5,0662.5,31.1
2021-06-25T11:48:00Z,00000200,00000000,0000.50,0000.34,0000.17,0000.26,0000.14,-000.01,0000.02,-000.10,0000.38,18.5,24.6,09.6,06.6,0662.6,31.1
2021-06-25T11:49:00Z,00000200,00000000,-000.06,-000.07,0000.05,0000.64,0000.01,-000.12,0000.29,0000.42,-000.25,18.5,24.6,09.4,06.5,0662.5,31.1
2021-06-25T11:50:00Z,00000200,00000000,0000.48,0000.06,0000.04,0000.73,0000.39,-000.14,0000.10,-000.16,0000.16,18.5,24.7,09.5,06.5,0662.5,31.1
2021-06-25T11:51:00Z,00000200,00000000,0000.31,0000.16,0000.09,0000.33,0000.21,0000.13,-000.09,0000.60,0000.25,18.5,24.7,09.4,06.4,0662.4,31.1
2021-06-25T11:52:00Z,00000200,00000000,0000.63,0000.06,0000.28,0000.14,0000.41,-000.00,-000.06,-000.27,-000.13,18.6,24.7,09.2,06.3,0662.4,31.1
2021-06-25T11:53:00Z,00000200,00000000,0000.68,0000.26,0000.03,0000.37,0000.08,-000.10,0000.19,0000.19,0000.01,18.5,24.7,09.3,06.4,0662.4,31.1
2021-06-25T11:54:00Z,00000200,00000000,0000.66,0000.02,0000.34,0000.15,0000.27,-000.19,0000.20,-000.21,0000.08,18.5,24.7,09.3,06.4,0662.5,31.1
2021-06-25T11:55:00Z,00000200,00000000,0001.09,0000.25,0000.39,0000.04,-000.10,-000.04,0000.05,-000.12,0000.07,18.5,24.6,09.2,06.3,0662.4,31.1
2021-06-25T11:56:00Z,00000200,00000000,0000.06,0000.36,0000.01,0000.56,0000.27,-000.11,-000.38,0000.36,-000.02,18.5,24.6,09.0,06.2,0662.3,31.1
2021-06-25T11:57:00Z,00000200,40000000,,,,,,,0000.09,-000.21,0000.03,18.6,24.7,09.2,06.3,0662.4,31.1
2021-06-25T11:58:00Z,00000200,60000000,,,,,,,0000.22,-000.22,-000.23,18.3,24.7,09.1,06.1,0661.4,31.1
2021-06-25T11:59:00Z,00000200,20000000,,,,,,,-000.38,-000.15,-000.10,18.3,24.8,09.1,06.1,0661.4,31.1
